STARLINK-2610 (48376 NORAD) Tracking and Keplerian Element Data

This shows tracking and keplerian element data for the satellite.

Feedback or suggestion? Click here.




ElementValue
Catalog48376
NameSTARLINK-2610
Epoch Orbit1395
Epoch Day210.792332
Epoch Year2021
RAAN350.9152
Inclination53.0548
Eccentricity0.0001196
Argument of Perigee97.5288
Mean Anonmoly262.5836
Mean Motion15.06401949
Decay Rate-7.1E-07
L11 48376U 21038Z 21210.79233200 -.00000071 00000-0 14124-4 0 9999
L22 48376 53.0548 350.9152 0001196 97.5288 262.5836 15.06401949 13955

Live tracking and technical data element details for STARLINK-2610 (NORAD 48376). STARLINK-2610 can be tracked NOW for your location showing map with azimuth and elevation plus other details from your city location.

Track the satellite on the map from your city or location and see movement details for azimuth, elevation, latitude, longitude, range, height, and movement on the map or in text.







IsCatalogInMostPopularTable: catalog: 48376, numindb: 32
Update: records affected: 1



GetName: 48376 STARLINK-2610

Hit Count: updated at: Sat, 31 Jul 2021 15:29:41 GMT